User: anonymous   Login
Location: Bittelbronn
(48.4454°N, 8.5870°E)
Time: 12:40:01
(UTC+00:00)
Language:

Cosmos 724 - Orbit

View from above orbital plane
View from above orbital plane
View from above satellite
View from above satellite

Ground track
Ground track

The orbit data is extracted from the following two-line orbital elements,

1  7727U 75025A   24201.11561763  .00000024  00000-0  76424-4 0  9994
2  7727  65.5899  71.2824 0045568  78.4025 282.2158 13.99031590518300
Epoch (UTC): 19 July 2024 02:46:29
Eccentricity: 0.0045568
inclination: 65.5899°
perigee height: 864 km
apogee height: 930 km
right ascension of ascending node: 71.2824°
argument of perigee: 78.4025°
revolutions per day: 13.99031590
mean anomaly at epoch: 282.2158°
orbit number at epoch: 51830

The dashed part of the orbit path shows where the satellite is in the earth's shadow,  

DLR